TimeCST,TemperatureF,Dew PointF,Humidity,Sea Level PressureIn,VisibilityMPH,Wind Direction,Wind SpeedMPH,Gust SpeedMPH,PrecipitationIn,Events,Conditions,WindDirDegrees,DateUTC
12:55 AM,67.5,53.8,61,29.83,10.0,SSE,5.8,-,N/A,,Scattered Clouds,160,2012-11-09 06:55:00
1:55 AM,68.7,53.6,58,29.83,10.0,South,8.1,-,N/A,,Scattered Clouds,170,2012-11-09 07:55:00
3:55 AM,59.4,53.2,80,29.84,10.0,SE,9.2,-,N/A,,Clear,130,2012-11-09 09:55:00
4:55 AM,58.5,53.2,83,29.84,10.0,ESE,8.1,-,N/A,,Clear,110,2012-11-09 10:55:00
5:55 AM,56.7,52.5,86,29.85,10.0,ESE,8.1,-,N/A,,Clear,110,2012-11-09 11:55:00
6:55 AM,55.6,51.8,87,29.85,10.0,ESE,8.1,-,N/A,,Clear,110,2012-11-09 12:55:00
7:55 AM,57.4,53.6,87,29.86,10.0,ESE,9.2,-,N/A,,Clear,110,2012-11-09 13:55:00
8:55 AM,64.6,57.6,78,29.87,10.0,SSE,16.1,-,N/A,,Clear,150,2012-11-09 14:55:00
9:55 AM,70.0,57.9,65,29.86,10.0,South,16.1,-,N/A,,Clear,180,2012-11-09 15:55:00
10:55 AM,74.3,57.0,55,29.85,10.0,South,16.1,-,N/A,,Clear,190,2012-11-09 16:55:00
11:55 AM,77.9,56.5,48,29.82,10.0,South,19.6,25.3,N/A,,Clear,180,2012-11-09 17:55:00
12:55 PM,79.9,55.9,44,29.78,10.0,South,20.7,27.6,N/A,,Clear,180,2012-11-09 18:55:00
1:55 PM,82.8,54.9,38,29.75,10.0,South,19.6,27.6,N/A,,Clear,190,2012-11-09 19:55:00
2:55 PM,84.6,53.4,34,29.72,10.0,South,19.6,28.8,N/A,,Clear,180,2012-11-09 20:55:00
3:55 PM,85.5,52.2,32,29.72,10.0,South,24.2,29.9,N/A,,Clear,180,2012-11-09 21:55:00
4:55 PM,84.4,50.2,30,29.72,10.0,South,20.7,31.1,N/A,,Clear,170,2012-11-09 22:55:00
5:55 PM,79.7,52.3,39,29.74,10.0,South,16.1,-,N/A,,Clear,170,2012-11-09 23:55:00
6:55 PM,76.6,55.6,48,29.76,10.0,South,18.4,-,N/A,,Clear,170,2012-11-10 00:55:00
7:55 PM,74.8,55.2,50,29.77,10.0,South,17.3,-,N/A,,Clear,170,2012-11-10 01:55:00
8:55 PM,72.5,55.8,56,29.79,10.0,South,16.1,-,N/A,,Clear,170,2012-11-10 02:55:00
9:55 PM,72.3,55.9,56,29.78,10.0,South,17.3,-,N/A,,Clear,170,2012-11-10 03:55:00
10:55 PM,70.9,55.2,58,29.79,10.0,South,19.6,-,N/A,,Clear,170,2012-11-10 04:55:00
11:55 PM,70.0,54.9,59,29.80,10.0,South,16.1,-,N/A,,Clear,180,2012-11-10 05:55:00